Printer-friendly version

IAU Minor Planet Center

Minor Planet Center

MPEC 2008-K62 : 2008 KD6

The following Minor Planet Electronic Circular may be linked-to from your own Web pages, but must not otherwise be redistributed electronically.


Read MPEC 2008-K61 Read MPEC 2008-K63


M.P.E.C. 2008-K62                                Issued 2008 May 30, 12:54 UT

     The Minor Planet Electronic Circulars contain information on unusual
         minor planets and routine data on comets.  They are published
   on behalf of Commission 20 of the International Astronomical Union by the
          Minor Planet Center, Smithsonian Astrophysical Observatory,
                          Cambridge, MA 02138, U.S.A.

             Prepared using the Tamkin Foundation Computer Network

                              MPC@CFA.HARVARD.EDU
          URL http://www.cfa.harvard.edu/iau/mpc.html  ISSN 1523-6714

                                   2008 KD6

Observations:
     K08K06D* C2008 05 29.42877 21 06 40.64 -07 02 32.2          20.4 V EK062G96
     K08K06D  C2008 05 29.43462 21 06 41.36 -07 02 14.2          21.0 V EK062G96
     K08K06D  C2008 05 29.44037 21 06 42.01 -07 01 56.1          20.9 V EK062G96
     K08K06D  C2008 05 29.44615 21 06 42.73 -07 01 38.3          20.8 V EK062G96
     K08K06D  C2008 05 29.47006 21 06 45.57 -07 00 23.6          20.8 V EK062G96
     K08K06D  C2008 05 29.47144 21 06 45.72 -07 00 19.5          20.5 V EK062G96
     K08K06D  C2008 05 29.47288 21 06 45.88 -07 00 15.6          20.4 V EK062G96
     K08K06D  C2008 05 30.41829 21 08 43.62 -06 10 26.1          20.9 V EK062G96
     K08K06D  C2008 05 30.41883 21 08 43.65 -06 10 24.4          20.9 V EK062G96
     K08K06D  C2008 05 30.41938 21 08 43.72 -06 10 22.4          20.6 V EK062G96
     K08K06D  C2008 05 30.41991 21 08 43.80 -06 10 20.8          20.3 V EK062G96

Observer details:
G96 Mt. Lemmon Survey.  Observers A. Boattini, A. R. Gibbs.  Measurers
    E. C. Beshore, A. Boattini, G. J. Garradd, A. R. Gibbs, A. D. Grauer,
    R. E. Hill, R. A. Kowalski, S. M. Larson, R. H. McNaught.  1.5-m reflector
    + CCD.

Orbital elements:
2008 KD6                                            PHA, Earth MOID = 0.0479 AU
Epoch 2008 May 14.0 TT = JDT 2454600.5                  MPC
M 295.60508              (2000.0)            P               Q
n   0.56362952     Peri.  119.94728     +0.82746542     -0.36079878
a   1.4514661      Node   264.23512     +0.23464161     +0.91831710
e   0.4648959      Incl.   25.62308     +0.51014144     +0.16284330
P   1.75           H   19.4           G   0.15           U   9
Residuals in seconds of arc
080529 G96  0.1-  0.0     080529 G96  0.2+  0.3+    080530 G96  0.2-  0.1-
080529 G96  0.2+  0.1-    080529 G96  0.0   0.1+    080530 G96  0.2-  0.1+
080529 G96  0.3-  0.1+    080529 G96  0.2-  0.4-    080530 G96  0.1+  0.0
080529 G96  0.2+  0.0     080530 G96  0.3+  0.1-

Ephemeris:
2008 KD6                 a,e,i = 1.45, 0.46, 26                  q = 0.7767
Date    TT    R. A. (2000) Decl.     Delta      r     Elong.  Phase     V
2008 05 24    20 55.67   -11 20.1    0.677    1.396   109.9    43.0    20.9
2008 06 03    21 16.28   -02 46.9    0.560    1.326   111.5    45.4    20.5
2008 06 13    21 39.34   +09 04.1    0.463    1.254   110.2    49.5    20.1
2008 06 23    22 08.16   +24 50.2    0.397    1.179   104.4    56.6    19.8
2008 07 03    22 50.24   +43 15.0    0.370    1.105    93.8    66.7    19.8
2008 07 13    00 04.17   +60 02.8    0.383    1.030    81.3    77.2    20.1
2008 07 23    02 22.71   +69 40.3    0.428    0.959    70.2    85.0    20.4
2008 08 02    05 03.41   +68 57.3    0.491    0.894    61.8    89.3    20.8
2008 08 12    06 39.44   +62 27.2    0.565    0.839    55.9    90.2    21.0
2008 08 22    07 32.58   +54 29.7    0.644    0.799    52.2    88.3    21.1
2008 09 01    08 08.40   +46 15.7    0.723    0.779    50.2    84.3    21.1
2008 09 11    08 37.06   +38 03.2    0.801    0.780    49.6    79.0    21.1
2008 09 21    09 02.39   +30 01.7    0.874    0.804    50.1    73.4    21.2
2008 10 01    09 25.71   +22 19.0    0.938    0.847    51.6    68.0    21.3
2008 10 11    09 47.36   +14 59.9    0.993    0.903    54.0    63.3    21.4
2008 10 21    10 07.42   +08 05.8    1.037    0.970    56.9    59.4    21.5
2008 10 31    10 25.85   +01 35.8    1.070    1.041    60.5    56.1    21.7
2008 11 10    10 42.53   -04 31.8    1.093    1.116    64.6    53.3    21.8
2008 11 20    10 57.32   -10 19.4    1.105    1.191    69.1    50.8    21.9
2008 11 30    11 09.98   -15 49.2    1.108    1.265    74.1    48.6    22.0
2008 12 10    11 20.12   -21 02.3    1.102    1.337    79.5    46.4    22.0
2008 12 20    11 27.25   -25 59.0    1.089    1.406    85.3    44.2    22.0
2008 12 30    11 30.67   -30 37.4    1.072    1.473    91.5    41.9    22.0
2009 01 09    11 29.52   -34 52.3    1.051    1.537    98.1    39.3    22.0
2009 01 19    11 23.00   -38 34.9    1.031    1.598   104.9    36.5    22.0
2009 01 29    11 10.53   -41 31.1    1.014    1.655   111.8    33.6    21.9
2009 02 08    10 52.51   -43 23.3    1.003    1.709   118.3    30.5    21.9
2009 02 18    10 30.85   -43 56.2    1.003    1.759   124.1    27.7    21.9
2009 02 28    10 08.72   -43 03.8    1.017    1.806   128.3    25.5    21.9
2009 03 10    09 49.62   -40 56.1    1.046    1.850   130.3    24.2    22.0
2009 03 20    09 35.76   -37 56.5    1.091    1.890   129.7    23.9    22.1

Timothy B. Spahr             (C) Copyright 2008 MPC           M.P.E.C. 2008-K62

Read MPEC 2008-K61 Read MPEC 2008-K63


Our Web policy. Index to the CBAT/MPC/ICQ pages.


Valid HTML 4.01!